This demonstration page uses our WeatherBlox Daily Observations layout. Learn more.

Left ArrowRight Arrow

Hourly Observations for March 8, 2022

Temp ( °F °C ) Dew Point ( °F °C ) Humidity (%) Winds ( mph kmh ) Pressure ( in mb ) Visibility ( mi km ) Precip ( " mm )
12:59 am 00:59 Mostly Cloudy 65 18.3 58 14.4 78 78 WSW 10 17 29.89 1012 10 16 0.00 0.00
1:59 am 01:59 Mostly Cloudy 64 17.8 56 13.3 75 75 W 14 22 29.91 1013 10 16 0.00 0.00
2:59 am 02:59 Mostly Cloudy 62 16.7 55 12.8 78 78 W 10 17 29.93 1013 10 16 0.00 0.00
3:59 am 03:59 Mostly Cloudy 59 15 48 8.9 67 67 NNE 13 20 29.97 1015 10 16 0.00 0.00
4:59 am 04:59 Partly Cloudy 54 12.2 44 6.7 69 69 NNE 9 15 30.01 1016 10 16 0.00 0.00
5:59 am 05:59 Mostly Cloudy 53 11.7 38 3.3 57 57 N 15 24 30.05 1018 10 16 0.00 0.00
6:59 am 06:59 Mostly Cloudy 51 10.6 37 2.8 59 59 N 15 24 30.10 1019 10 16 0.00 0.00
7:59 am 07:59 Mostly Cloudy 52 11.1 35 1.7 53 53 N 15 24 30.14 1021 10 16 0.00 0.00
8:59 am 08:59 Mostly Cloudy 52 11.1 34 1.1 50 50 N 14 22 30.17 1022 10 16 0.00 0.00
9:59 am 09:59 Partly Cloudy 52 11.1 34 1.1 50 50 NNE 16 26 30.18 1022 10 16 0.00 0.00
10:59 am 10:59 Partly Cloudy 53 11.7 33 0.6 47 47 N 15 24 30.19 1022 10 16 0.00 0.00
11:59 am 11:59 Sunny 52 11.1 34 1.1 50 50 NE 16 26 30.20 1023 10 16 0.00 0.00
12:59 pm 12:59 Mostly Sunny 52 11.1 34 1.1 50 50 NE 18 30 30.19 1022 10 16 0.00 0.00
1:59 pm 13:59 Sunny 52 11.1 33 0.6 49 49 NE 12 19 30.19 1022 10 16 0.00 0.00
2:59 pm 14:59 Sunny 53 11.7 33 0.6 47 47 NE 9 15 30.18 1022 10 16 0.00 0.00
3:59 pm 15:59 Mostly Sunny 52 11.1 36 2.2 55 55 ENE 9 15 30.16 1022 10 16 0.00 0.00
4:59 pm 16:59 Mostly Sunny 51 10.6 33 0.6 50 50 E 10 17 30.16 1021 10 16 0.00 0.00
5:59 pm 17:59 Mostly Cloudy 49 9.4 31 -0.6 50 50 E 8 13 30.16 1021 10 16 0.00 0.00
6:59 pm 18:59 Mostly Cloudy 47 8.3 33 0.6 59 59 SE 6 9 30.17 1022 10 16 0.00 0.00
7:59 pm 19:59 Clear 48 8.9 34 1.1 58 58 SE 9 15 30.17 1022 10 16 0.00 0.00
8:59 pm 20:59 Mostly Cloudy 48 8.9 35 1.7 61 61 SE 8 13 30.18 1022 10 16 0.00 0.00
9:59 pm 21:59 Cloudy 48 8.9 36 2.2 63 63 ESE 8 13 30.18 1022 10 16 0.00 0.00
10:59 pm 22:59 Cloudy with Light Rain 48 8.9 37 2.8 66 66 ESE 9 15 30.18 1022 6 10 0.00 0.00
11:59 pm 23:59 Cloudy with Light Rain 47 8.3 41 5 80 80 E 6 9 30.17 1022 6 10 0.09 2.29

Powered by AerisWeather